This is the latest recevied weather packets stored in our database for station/object DB0WUN-13. If no packets are shown the sender has not sent any weather packets the latest 10 day(s).
| Time | Temp. | Humidity | Pressure | Rain* | Wind** | Luminosity | Snow |
|---|---|---|---|---|---|---|---|
| 1776940637 | 14.44° C | 33% | 1024.4 hPa | 0 mm | - | 875 W/m² | - |
| 1776940583 | 14.44° C | 34% | 1024.4 hPa | 0 mm | - | 877 W/m² | - |
| 1776940523 | 14.44° C | 33% | 1024.3 hPa | 0 mm | - | 877 W/m² | - |
| 1776940457 | 14.44° C | 32% | 1024.4 hPa | 0 mm | - | 875 W/m² | - |
| 1776940398 | 14.44° C | 31% | 1024.4 hPa | 0 mm | - | 879 W/m² | - |
| 1776940344 | 14.44° C | 31% | 1024.5 hPa | 0 mm | - | 874 W/m² | - |
| 1776940272 | 14.44° C | 30% | 1024.5 hPa | 0 mm | - | 874 W/m² | - |
| 1776940210 | 15° C | 31% | 1024.5 hPa | 0 mm | - | 874 W/m² | - |
| 1776940145 | 15° C | 30% | 1024.4 hPa | 0 mm | - | 872 W/m² | - |
| 1776940084 | 14.44° C | 31% | 1024.5 hPa | 0 mm | - | 870 W/m² | - |
| 1776940021 | 14.44° C | 31% | 1024.4 hPa | 0 mm | - | 870 W/m² | - |
| 1776939969 | 14.44° C | 28% | 1024.4 hPa | 0 mm | - | 870 W/m² | - |
| 1776939901 | 14.44° C | 28% | 1024.4 hPa | 0 mm | - | 868 W/m² | - |
| 1776939835 | 14.44° C | 32% | 1024.5 hPa | 0 mm | - | 868 W/m² | - |
| 1776939776 | 14.44° C | 30% | 1024.5 hPa | 0 mm | - | 867 W/m² | - |
| 1776939730 | 14.44° C | 31% | 1024.5 hPa | 0 mm | - | 867 W/m² | - |
| 1776939680 | 14.44° C | 33% | 1024.6 hPa | 0 mm | - | 863 W/m² | - |
| 1776939605 | 13.89° C | 35% | 1024.6 hPa | 0 mm | - | 863 W/m² | - |
| 1776939545 | 13.89° C | 34% | 1024.5 hPa | 0 mm | - | 863 W/m² | - |
| 1776939488 | 13.89° C | 34% | 1024.4 hPa | 0 mm | - | 865 W/m² | - |
| 1776939423 | 13.33° C | 34% | 1024.6 hPa | 0 mm | - | 861 W/m² | - |
| 1776939371 | 13.33° C | 34% | 1024.6 hPa | 0 mm | - | 858 W/m² | - |
| 1776939304 | 13.89° C | 33% | 1024.7 hPa | 0 mm | - | 861 W/m² | - |
| 1776939249 | 13.89° C | 37% | 1024.6 hPa | 0 mm | - | 854 W/m² | - |
| 1776939189 | 13.89° C | 37% | 1024.6 hPa | 0 mm | - | 854 W/m² | - |
* Rain latest hour (hover to see other rain measurements)
** Current wind speed in m/s (hover to see current wind gust speed)